Location: Unspecified
(0.0000°N, 0.0000°E)
Time: 12:22:14
(UTC+00:00)

A-11 Canister half - Pass Details

Date: 12 October 2023
Orbit: 1515 x 1684 km, 47.2° (Epoch: 10 September)

Event Time Altitude Azimuth Distance (km) Brightness Sun altitude
Rises 22:39:13 0° 332° (NNW) 4,665 - -71.6°
Reaches altitude 10° 22:42:25 10° 338° (NNW) 3,673 - -72.3°
Maximum altitude 22:51:13 49° 50° (NE) 1,882 - -74.3°
Drops below altitude 10° 23:00:02 10° 122° (ESE) 3,693 - -76.2°
Sets 23:03:14 0° 127° (SE) 4,692 - -76.8°
